Wind_Speed
14 16 18 19 20 23 24 27 28 28 30 28 33 30 33 37 40 42 41 44 45 46 49 52 49 50 43 40 38 35 33 40 41 42 46 47 50 52 53 49 46 45 45 48 43 48 43 40 37
20 21 23 23 26 29 26 35 35 33 36 34 38 36 40 42 44 46 49 47 48 51 50 54 52 44 42 41 40 40 45 50 50 53 55 51 52 51 53 52 48 44 43 48 45 45 41 41 37
27 27 27 29 31 35 32 38 39 38 40 41 40 44 46 47 49 53 52 50 51 56 54 55 46 45 46 48 50 50 51 54 53 53 50 51 51 53 54 51 49 46 45 45 48 43 43 42 35
31 32 33 34 33 40 41 42 44 44 44 48 47 50 51 54 58 57 59 58 59 58 57 50 50 53 54 57 57 57 58 57 56 54 53 54 54 55 52 53 52 50 50 45 44 43 43 42 36
36 39 40 41 39 44 45 47 49 51 51 53 53 57 59 60 61 62 62 64 64 63 61 61 61 62 63 63 64 63 61 60 57 55 54 55 53 54 54 54 53 53 50 45 44 45 44 41 37
40 43 45 48 39 48 51 52 56 56 58 62 64 62 66 68 68 66 65 66 66 67 68 70 70 70 70 69 69 66 65 59 54 56 57 57 54 55 57 55 54 53 52 43 42 44 46 43 36
44 46 48 52 50 47 55 55 60 63 66 67 69 69 71 73 70 72 75 77 77 76 76 77 77 79 76 73 73 72 69 67 62 61 61 59 59 58 57 57 53 53 50 43 41 41 45 44 35
50 53 54 55 61 53 59 62 66 66 70 73 73 69 69 74 77 78 80 82 84 85 83 82 81 80 80 79 76 77 76 75 73 69 66 66 65 61 59 57 55 51 45 40 40 44 45 43 38
56 57 60 60 63 65 67 65 70 68 71 75 80 80 80 80 82 86 87 86 87 88 89 88 87 86 86 83 83 81 81 82 79 77 73 71 69 66 61 56 53 47 43 40 43 48 41 41 40
62 63 63 64 65 66 71 72 78 74 77 81 82 85 86 88 90 90 92 93 94 95 96 97 97 96 94 92 88 86 85 85 83 80 77 73 70 66 57 57 47 42 41 45 44 41 41 37 40
62 64 66 70 75 70 71 76 79 82 81 84 87 88 91 94 95 97 99 100 101 101 101 103 103 104 104 100 100 96 92 88 86 88 83 79 75 65 59 59 51 42 39 43 38 39 42 37 35
67 69 72 76 77 78 82 84 86 88 89 90 91 93 96 99 99 99 103 106 107 109 109 109 109 110 109 107 104 99 96 90 86 84 77 75 68 67 59 53 48 42 40 42 41 40 44 37 33
75 76 76 78 79 83 86 88 91 93 95 98 99 100 101 103 103 108 111 114 115 118 118 118 116 112 110 108 103 96 89 84 78 73 76 72 68 64 56 55 46 41 38 39 40 37 39 38 33
78 80 81 83 85 85 88 89 94 96 99 100 102 105 107 111 113 115 116 119 121 118 118 116 108 106 99 98 93 89 87 81 76 71 65 66 64 56 58 52 45 39 37 39 37 40 37 36 31
82 83 85 88 87 88 94 89 98 100 103 106 108 111 115 116 119 120 122 117 115 110 106 105 103 101 96 95 95 92 90 88 82 75 69 58 57 55 52 48 51 48 45 38 36 35 31 37 34
86 85 87 87 91 92 96 95 98 102 107 111 114 116 119 118 116 111 109 109 106 105 107 107 107 104 103 103 100 98 95 89 83 76 71 64 57 55 50 50 53 54 48 44 36 38 41 40 34
89 90 90 89 96 96 101 104 109 111 113 115 116 113 111 108 109 109 110 110 109 108 110 110 108 107 105 103 98 96 93 88 85 79 76 68 62 57 55 54 64 62 52 52 52 44 40 40 43
90 92 94 97 96 101 105 111 113 114 115 116 112 111 111 111 111 112 110 109 110 111 111 104 98 95 96 96 95 93 87 83 78 72 68 61 60 60 58 59 66 65 62 57 55 44 45 43 43
94 97 102 104 104 108 112 115 107 104 105 107 108 111 114 115 118 116 115 116 116 109 104 98 93 91 89 88 88 89 86 80 74 70 66 61 54 57 60 61 66 77 70 66 60 56 60 50 44
98 101 104 106 111 109 103 101 101 102 106 109 110 111 113 113 108 105 103 101 98 95 92 91 89 87 87 86 86 85 83 78 75 69 64 61 58 55 58 64 66 79 75 68 72 71 68 59 47
97 98 99 100 98 99 98 100 104 106 108 110 110 107 106 103 103 100 98 97 97 95 91 86 85 82 80 81 84 84 83 81 78 73 64 63 62 59 61 64 71 83 73 82 75 65 65 56 50
94 91 91 93 94 97 101 103 105 102 101 100 99 98 97 96 92 92 93 94 94 93 90 86 84 81 77 78 78 80 80 81 81 79 74 66 63 65 63 68 77 89 79 80 76 79 68 59 49
87 86 88 90 93 93 93 93 94 93 92 93 93 94 90 89 85 83 85 84 84 82 81 80 79 78 77 76 75 74 75 76 76 78 82 76 69 65 70 74 82 91 93 84 73 63 68 62 56
82 83 85 88 87 90 86 87 89 90 88 88 88 86 84 81 78 76 76 69 69 65 62 61 61 62 63 66 68 69 68 67 70 75 80 83 80 70 72 78 88 93 103 101 95 70 66 59 49
80 82 81 81 81 81 82 82 86 85 83 83 81 78 76 74 74 72 72 70 63 54 53 52 52 52 52 54 57 60 62 63 63 68 75 82 86 81 77 82 90 97 102 103 105 85 78 61 68
79 77 75 74 74 76 80 79 78 76 77 75 72 72 71 71 71 69 68 65 59 54 50 47 44 43 42 45 47 52 55 59 59 60 67 75 86 88 82 86 94 100 107 111 106 93 84 83 64
66 64 67 71 72 73 74 72 72 72 68 68 69 71 71 73 71 68 65 60 56 51 48 44 42 39 37 38 40 43 48 52 53 57 61 70 82 90 90 91 99 103 111 117 111 107 92 89 89
60 61 63 69 66 62 63 66 68 67 64 66 70 73 73 74 73 69 65 61 57 53 47 43 40 39 35 31 33 35 40 44 48 52 56 65 76 88 94 92 101 108 116 120 121 110 110 96 97
55 58 61 58 52 55 60 64 63 61 62 67 70 72 73 74 72 69 66 62 59 53 48 44 40 37 32 30 30 32 34 36 41 46 49 59 72 84 96 98 100 112 121 124 125 121 112 106 100
54 54 48 44 48 54 60 62 59 58 61 66 69 71 73 75 74 71 68 64 63 58 51 44 41 36 33 29 26 28 30 32 33 39 45 53 66 81 92 101 101 111 119 123 124 128 124 116 104
Wind_Direction
280 286 290 282 282 284 291 289 287 291 292 294 303 301 304 309 307 310 319 317 320 321 313 312 313 312 313 309 306 306 306 314 315 315 317 317 319 321 321 323 324 324 326 330 328 332 328 326 326
283 286 289 292 293 290 294 291 290 288 291 293 301 301 304 306 303 312 312 312 317 307 303 308 305 306 305 307 310 308 310 311 310 310 312 314 315 315 316 319 321 321 321 319 323 327 322 323 320
276 281 285 287 292 291 288 297 296 297 297 296 302 305 302 298 306 312 307 308 306 303 303 305 299 301 301 302 303 302 303 305 305 307 308 311 312 313 314 317 319 319 320 315 317 319 321 320 317
276 278 281 283 289 294 295 295 295 297 297 299 301 295 295 307 309 303 306 304 300 301 302 298 297 300 301 302 303 303 304 304 305 305 307 308 309 310 311 314 314 316 319 316 312 316 313 313 315
276 279 278 281 288 291 293 291 292 294 295 294 293 302 305 299 300 300 298 297 298 298 298 299 301 301 300 300 302 302 305 304 303 303 305 307 309 310 308 310 309 311 313 315 308 313 313 311 314
276 279 280 281 282 286 288 290 291 290 292 301 304 301 298 300 299 298 299 299 297 297 297 297 299 300 302 303 302 302 301 299 298 299 301 304 306 307 308 305 304 309 310 309 302 310 308 308 313
276 277 281 282 285 282 282 285 288 297 300 297 296 295 296 295 297 297 298 299 298 297 297 297 299 299 299 299 299 300 298 297 296 297 298 300 303 304 304 302 300 304 307 304 296 303 307 306 309
271 271 271 272 278 285 289 297 295 292 293 293 294 296 296 294 295 296 295 296 296 297 297 297 297 297 297 298 297 297 298 296 296 295 294 297 299 298 296 296 297 301 301 297 289 300 304 304 304
270 274 283 284 291 291 288 285 290 286 291 293 295 293 293 293 293 293 294 294 294 295 296 296 295 295 294 295 296 295 295 293 292 293 292 293 294 293 290 291 293 292 292 285 292 295 297 301 301
282 281 282 281 283 284 283 284 293 292 292 294 295 294 294 293 292 292 292 292 293 293 294 294 294 294 294 294 293 291 291 290 288 287 287 288 288 288 284 286 286 286 290 286 291 289 290 294 299
276 278 286 284 287 287 287 288 289 290 290 291 292 293 294 294 293 293 295 295 295 295 294 295 294 294 293 292 291 290 287 284 283 282 282 283 283 281 276 282 281 279 283 282 287 282 283 287 294
281 280 283 288 290 290 290 290 292 292 291 291 291 292 291 291 292 293 295 295 294 294 293 293 292 291 289 288 286 285 284 279 278 278 279 278 273 273 272 270 272 274 278 280 277 279 277 278 286
278 283 286 288 289 289 290 291 291 291 291 291 291 291 292 293 292 292 293 294 294 293 291 290 289 287 286 286 286 285 286 279 279 275 279 279 272 268 264 267 265 263 272 273 277 283 267 271 278
280 282 285 285 287 290 290 291 291 291 290 291 292 293 294 294 294 292 291 291 291 292 291 288 290 288 287 290 286 285 287 284 281 281 277 271 270 263 259 259 251 250 255 269 270 272 266 264 272
280 282 284 287 287 288 289 290 290 291 292 294 294 293 294 295 294 293 291 292 292 292 293 292 291 290 288 288 287 287 285 282 280 277 276 271 263 259 255 244 236 246 244 250 254 265 262 266 262
284 285 285 286 287 289 289 291 290 292 294 294 294 294 294 295 294 292 291 290 290 290 290 287 286 285 284 283 282 281 281 277 276 272 271 272 261 255 244 234 224 232 232 238 243 251 258 262 257
285 284 285 286 288 290 293 294 294 293 293 294 293 293 291 290 292 292 292 290 288 287 287 286 284 282 281 280 279 278 275 274 274 271 270 264 258 253 241 231 220 216 219 226 235 243 253 253 254
283 285 287 289 291 292 293 294 294 293 292 292 291 291 293 291 292 291 289 288 286 286 288 287 283 281 278 276 277 276 274 273 271 268 266 260 252 248 235 225 217 215 213 211 223 235 251 247 251
286 289 289 289 291 292 294 293 295 293 292 292 293 294 295 292 292 294 292 291 292 289 287 285 282 278 275 272 272 272 272 270 265 263 260 255 248 240 231 223 214 216 211 215 214 210 233 241 249
287 288 291 293 293 297 297 295 293 291 292 294 295 296 295 295 297 299 298 295 292 289 285 283 280 276 273 271 268 266 266 265 265 261 254 248 244 234 226 219 213 215 214 213 217 214 223 234 239
292 293 295 297 296 292 290 291 293 295 295 296 297 298 300 302 302 301 298 295 294 292 290 286 282 278 274 270 265 261 258 256 256 254 249 244 239 232 227 221 210 208 213 208 215 215 220 227 232
293 293 292 290 289 290 289 290 295 298 300 301 302 302 304 305 303 301 299 298 297 295 294 290 286 281 276 272 267 262 257 252 249 248 245 240 235 229 222 213 207 205 204 204 213 214 213 223 219
290 288 288 289 292 296 296 297 300 301 301 302 303 305 306 305 306 303 301 299 297 292 287 284 282 280 278 276 272 265 259 254 248 242 239 238 235 228 220 209 207 206 202 203 203 205 211 221 225
288 287 289 295 299 298 299 300 302 303 304 305 307 308 311 313 313 313 311 306 299 295 293 289 283 278 274 272 269 267 262 254 247 240 234 232 233 227 216 207 204 205 206 206 209 212 206 215 208
289 290 296 298 298 299 298 300 302 304 307 309 311 315 319 320 324 323 322 316 311 307 303 298 291 286 280 274 268 264 261 257 247 238 231 227 226 226 214 208 204 204 208 207 209 210 206 195 203
291 296 296 297 297 297 298 301 303 307 311 313 317 320 323 326 329 329 328 322 319 315 313 307 301 295 286 277 271 264 258 253 248 239 230 225 221 220 215 208 202 202 205 206 210 208 206 204 206
295 293 296 297 298 299 300 303 307 312 315 316 320 324 327 331 334 333 334 331 326 324 321 318 311 305 295 285 272 262 258 254 246 239 229 222 218 217 216 207 203 204 203 208 208 209 203 207 211
291 293 295 297 299 301 302 308 312 314 317 320 324 327 331 335 335 336 338 341 341 335 329 326 320 315 306 292 278 264 257 253 248 240 230 220 216 215 213 209 204 203 204 207 208 207 209 208 213
294 295 296 299 303 308 311 314 315 317 320 322 325 327 332 335 337 339 342 345 348 346 338 332 330 323 314 301 283 270 257 252 249 243 233 221 215 213 212 211 206 205 204 207 209 207 209 209 211
294 296 297 303 308 311 313 315 317 319 320 322 325 328 333 336 339 340 344 346 350 352 347 342 336 331 323 310 293 279 264 250 243 242 234 225 216 212 210 209 208 205 205 206 209 209 209 211 211
Height
10935 10935 10934 10933 10932 10930 10929 10927 10925 10925 10924 10924 10920 10920 10917 10914 10910 10908 10907 10904 10902 10900 10896 10893 10891 10889 10886 10882 10879 10877 10874 10871 10869 10865 10861 10856 10851 10844 10841 10836 10832 10828 10823 10819 10814 10810 10805 10798 10792
10931 10930 10929 10928 10927 10924 10926 10920 10919 10920 10918 10917 10914 10914 10911 10909 10905 10903 10900 10898 10896 10896 10891 10887 10883 10881 10879 10876 10874 10871 10868 10864 10861 10859 10856 10852 10846 10840 10835 10831 10827 10823 10819 10814 10810 10806 10800 10795 10790
10926 10925 10924 10922 10921 10917 10917 10914 10913 10913 10911 10909 10912 10906 10903 10899 10898 10895 10891 10890 10890 10888 10886 10882 10877 10874 10873 10870 10867 10865 10861 10857 10854 10852 10849 10845 10841 10835 10829 10826 10821 10818 10814 10810 10807 10801 10797 10793 10788
10921 10920 10919 10916 10918 10913 10911 10908 10904 10904 10906 10902 10904 10899 10897 10894 10889 10884 10882 10883 10881 10880 10878 10875 10872 10868 10865 10862 10860 10856 10853 10850 10846 10843 10840 10838 10833 10828 10823 10819 10816 10812 10809 10805 10802 10799 10794 10789 10785
10917 10914 10912 10911 10913 10907 10905 10901 10898 10897 10895 10892 10891 10891 10888 10885 10882 10879 10876 10872 10870 10868 10867 10865 10862 10859 10856 10853 10849 10846 10843 10840 10837 10832 10830 10829 10827 10821 10816 10813 10809 10805 10803 10799 10796 10794 10790 10787 10784
10912 10908 10906 10901 10909 10903 10898 10895 10891 10886 10885 10883 10881 10880 10874 10871 10869 10865 10863 10861 10859 10857 10854 10852 10850 10847 10845 10841 10837 10833 10832 10829 10826 10823 10820 10818 10817 10813 10808 10805 10802 10800 10796 10793 10791 10789 10786 10783 10780
10905 10902 10900 10894 10895 10899 10889 10888 10882 10880 10877 10874 10871 10870 10868 10860 10857 10852 10848 10846 10844 10842 10840 10838 10836 10833 10831 10829 10824 10820 10818 10815 10813 10811 10808 10806 10806 10803 10799 10796 10794 10793 10790 10788 10785 10784 10782 10779 10777
10895 10891 10889 10887 10877 10887 10883 10882 10877 10873 10868 10864 10859 10857 10854 10848 10845 10841 10836 10832 10827 10823 10822 10821 10820 10818 10818 10815 10812 10806 10802 10797 10796 10796 10795 10793 10793 10794 10791 10788 10786 10783 10782 10781 10779 10778 10777 10774 10773
10886 10883 10883 10881 10878 10878 10874 10873 10866 10865 10859 10852 10845 10842 10839 10835 10829 10824 10821 10819 10815 10810 10806 10806 10804 10803 10802 10802 10800 10797 10792 10786 10784 10783 10780 10781 10781 10781 10780 10779 10781 10777 10775 10774 10773 10773 10772 10770 10768
10883 10880 10877 10873 10872 10866 10862 10858 10854 10853 10847 10840 10834 10825 10820 10817 10813 10808 10804 10801 10800 10796 10792 10789 10785 10784 10782 10782 10784 10782 10778 10772 10768 10768 10769 10769 10771 10770 10768 10769 10771 10770 10770 10766 10767 10766 10766 10765 10764
10871 10868 10865 10860 10858 10855 10853 10847 10842 10836 10838 10828 10822 10815 10807 10800 10794 10788 10785 10784 10779 10777 10774 10768 10765 10762 10761 10760 10761 10762 10762 10760 10754 10748 10752 10755 10756 10761 10760 10759 10761 10762 10762 10760 10760 10760 10759 10759 10758
10860 10857 10856 10851 10846 10842 10837 10836 10828 10821 10818 10813 10806 10800 10794 10789 10783 10773 10765 10759 10754 10752 10749 10746 10745 10737 10733 10733 10736 10736 10737 10738 10739 10732 10733 10739 10739 10743 10748 10750 10750 10752 10751 10752 10753 10753 10753 10752 10753
10850 10846 10844 10840 10834 10828 10824 10820 10814 10807 10800 10795 10789 10785 10780 10773 10767 10758 10748 10741 10733 10724 10716 10710 10708 10708 10708 10703 10702 10705 10709 10711 10712 10718 10716 10719 10722 10727 10732 10736 10739 10741 10742 10743 10743 10745 10746 10746 10747
10839 10836 10832 10827 10821 10814 10809 10807 10795 10789 10782 10776 10770 10764 10760 10753 10747 10739 10729 10718 10708 10700 10694 10686 10678 10674 10672 10672 10673 10674 10678 10682 10687 10693 10698 10702 10703 10711 10715 10722 10725 10728 10733 10734 10735 10737 10739 10740 10741
10826 10824 10821 10811 10808 10800 10791 10800 10771 10771 10765 10756 10749 10740 10733 10726 10717 10710 10701 10690 10682 10674 10667 10660 10654 10650 10649 10646 10644 10648 10653 10653 10661 10667 10675 10683 10687 10691 10698 10705 10712 10716 10719 10720 10724 10728 10730 10732 10733
10810 10810 10804 10799 10790 10786 10771 10776 10768 10756 10748 10740 10731 10721 10710 10700 10690 10681 10672 10664 10657 10651 10645 10639 10633 10627 10624 10622 10624 10625 10626 10628 10634 10640 10648 10661 10666 10672 10681 10687 10698 10702 10707 10708 10712 10716 10721 10725 10725
10795 10790 10787 10788 10771 10769 10758 10753 10745 10738 10729 10719 10710 10701 10690 10679 10670 10659 10649 10639 10631 10625 10620 10614 10608 10603 10596 10592 10594 10597 10602 10605 10608 10614 10623 10633 10641 10651 10660 10666 10676 10682 10686 10693 10699 10706 10711 10714 10718
10784 10777 10772 10759 10759 10752 10742 10731 10724 10716 10707 10697 10687 10676 10666 10655 10644 10634 10624 10614 10604 10597 10590 10584 10581 10578 10574 10568 10564 10566 10574 10580 10583 10587 10595 10606 10617 10625 10636 10646 10656 10664 10670 10676 10686 10696 10701 10706 10710
10768 10760 10754 10747 10739 10732 10722 10712 10702 10690 10680 10670 10660 10651 10641 10627 10614 10601 10591 10580 10570 10564 10557 10551 10547 10545 10543 10543 10542 10541 10543 10551 10559 10566 10571 10581 10591 10602 10614 10625 10633 10644 10652 10661 10672 10672 10678 10696 10700
10756 10748 10737 10726 10722 10710 10699 10688 10678 10669 10659 10649 10638 10626 10615 10600 10587 10573 10560 10547 10536 10527 10522 10517 10516 10515 10514 10514 10515 10516 10520 10526 10531 10543 10550 10558 10567 10579 10590 10603 10614 10626 10638 10650 10657 10665 10675 10684 10690
10739 10732 10722 10713 10704 10689 10682 10670 10660 10651 10640 10628 10614 10599 10585 10573 10560 10547 10532 10517 10506 10496 10490 10486 10483 10481 10481 10481 10482 10486 10493 10500 10506 10515 10527 10535 10544 10556 10569 10583 10594 10607 10618 10631 10640 10647 10655 10669 10677
10724 10716 10707 10697 10686 10675 10664 10653 10642 10632 10619 10604 10590 10577 10566 10553 10538 10523 10506 10491 10479 10466 10457 10450 10445 10444 10447 10447 10448 10452 10458 10469 10480 10489 10501 10511 10521 10532 10546 10559 10572 10584 10598 10611 10622 10630 10640 10652 10661
10708 10701 10691 10681 10670 10657 10647 10634 10625 10611 10599 10586 10574 10561 10547 10532 10516 10499 10482 10466 10453 10441 10430 10423 10419 10417 10415 10413 10413 10417 10424 10435 10446 10462 10473 10484 10497 10509 10520 10535 10551 10563 10578 10592 10605 10615 10627 10636 10646
10691 10683 10674 10665 10651 10640 10628 10620 10607 10595 10582 10569 10558 10544 10528 10511 10494 10475 10458 10446 10431 10418 10408 10401 10395 10393 10391 10388 10385 10385 10391 10401 10413 10428 10443 10458 10472 10486 10497 10511 10528 10543 10558 10573 10588 10602 10609 10621 10636
10674 10667 10657 10648 10637 10625 10615 10606 10595 10581 10568 10556 10542 10528 10513 10497 10479 10459 10440 10423 10410 10400 10390 10382 10375 10371 10369 10365 10362 10361 10364 10370 10382 10395 10411 10426 10443 10460 10477 10488 10505 10522 10536 10553 10567 10583 10591 10599 10618
10658 10652 10643 10632 10624 10613 10602 10593 10583 10569 10557 10542 10530 10518 10504 10488 10468 10449 10430 10411 10396 10384 10374 10364 10358 10353 10350 10345 10342 10340 10340 10344 10355 10368 10383 10399 10414 10432 10452 10466 10481 10500 10515 10531 10549 10564 10572 10584 10593
10646 10639 10629 10619 10609 10599 10590 10580 10569 10558 10545 10533 10520 10507 10493 10475 10458 10441 10422 10404 10386 10372 10362 10351 10343 10338 10333 10328 10324 10322 10321 10325 10334 10344 10360 10375 10388 10407 10425 10444 10459 10477 10492 10510 10528 10545 10556 10568 10580
10633 10625 10616 10607 10595 10588 10581 10570 10558 10545 10534 10521 10508 10495 10481 10466 10449 10432 10416 10397 10378 10363 10351 10341 10332 10324 10318 10313 10309 10307 10306 10309 10316 10325 10339 10354 10368 10384 10401 10421 10437 10453 10470 10486 10505 10521 10538 10551 10563
10620 10612 10603 10595 10587 10577 10569 10558 10546 10534 10523 10510 10498 10486 10473 10458 10442 10424 10408 10392 10375 10359 10345 10333 10323 10314 10308 10302 10297 10294 10294 10297 10302 10309 10322 10334 10347 10361 10378 10396 10415 10429 10448 10465 10482 10500 10516 10534 10548
10609 10601 10594 10588 10580 10571 10560 10550 10537 10526 10514 10501 10490 10477 10463 10448 10434 10417 10401 10385 10370 10355 10340 10327 10316 10307 10299 10293 10288 10285 10284 10285 10290 10296 10305 10314 10327 10340 10355 10374 10391 10408 10425 10440 10459 10477 10495 10514 10530